Language: 


Des rapports , des résumés tant et plus, au choix de chacun....


Données statistiques de la station
Quotidien Rapport Mai 2, 2017 Unités:  Anglais    Métrique   les deux
« Précédent Jour
Suivant Jour »
Quotidien Hebdomadaire Mensuel Annuel Actuel
  Haut: Bas: Moyen:
Température: 66 °F 36.7 °F 50.9 °F
Pt de rosée: 50 °F 35.6 °F 44.2 °F
Humidité: 98 % 45 % 79 %
Vitesse du vent: 12.3 mph 0 mph 2.7 mph
Rafales: 15.4 mph - -
Vent:- - West
Pression: 30.1 in 29.9 in -
Précipitation: 0.01 in    
Historical Graphs
 
 
Données statistiques pour Mai 2, 2017
Heure Température Point de rosée Pression Vent Vitesse du vent Refales Humidité Pluie (taux horaire)
00:01 45.9 °F 41 °F 29.9 in Calm     81 % 0 in
00:06 45.7 °F 41 °F 29.9 in Calm   2.2 mph 81 % 0 in
00:11 45.5 °F 41 °F 29.9 in Calm   2.9 mph 81 % 0 in
00:16 45.3 °F 41 °F 29.9 in Calm   3.6 mph 82 % 0 in
00:21 45.1 °F 41 °F 29.9 in Calm   3.8 mph 82 % 0 in
00:26 45.1 °F 41 °F 29.9 in Calm   3.8 mph 82 % 0 in
00:31 45.1 °F 41 °F 29.9 in NNE 2.5 mph 4 mph 83 % 0 in
00:36 45 °F 41 °F 29.9 in Calm   4 mph 83 % 0 in
00:41 45 °F 41 °F 29.9 in Calm   3.4 mph 83 % 0 in
00:46 45 °F 41 °F 29.9 in Calm   2.7 mph 83 % 0 in
00:51 45.1 °F 41 °F 29.9 in NNE 2.9 mph 3.4 mph 84 % 0 in
00:56 45.5 °F 42.8 °F 29.9 in NNE 2.5 mph 3.6 mph 85 % 0 in
01:01 45.7 °F 42.8 °F 29.9 in Calm   3.6 mph 85 % 0 in
01:06 45.7 °F 42.8 °F 29.9 in Calm   3.6 mph 85 % 0 in
01:11 45.7 °F 42.8 °F 29.9 in Calm   3.4 mph 85 % 0 in
01:16 45.7 °F 42.8 °F 29.9 in NE 0.9 mph 3.6 mph 85 % 0 in
01:21 45.7 °F 42.8 °F 29.9 in Calm   3.6 mph 85 % 0 in
01:26 45.5 °F 42.8 °F 29.9 in NE 2.7 mph 3.4 mph 85 % 0 in
01:31 45.5 °F 42.8 °F 29.9 in Calm   3.4 mph 85 % 0 in
01:36 45.5 °F 42.8 °F 29.9 in Calm   3.1 mph 85 % 0 in
01:41 45.5 °F 42.8 °F 29.9 in Calm   3.1 mph 85 % 0 in
01:47 45.1 °F 41 °F 29.9 in NNW 0.9 mph 4.9 mph 85 % 0 in
01:52 44.8 °F 41 °F 29.9 in Calm   4.9 mph 85 % 0 in
01:57 44.8 °F 41 °F 29.9 in Calm     85 % 0 in
02:02 44.6 °F 41 °F 29.9 in Calm   1.6 mph 85 % 0 in
02:07 44.2 °F 41 °F 29.9 in Calm   1.6 mph 85 % 0 in
02:12 43.7 °F 41 °F 29.9 in Calm     85 % 0 in
02:17 43.3 °F 39.2 °F 29.9 in Calm     85 % 0 in
02:22 43.2 °F 39.2 °F 29.9 in Calm     85 % 0 in
02:27 42.8 °F 39.2 °F 29.9 in Calm     85 % 0 in
02:32 42.4 °F 39.2 °F 29.9 in Calm     86 % 0 in
02:37 42.1 °F 39.2 °F 29.9 in Calm     86 % 0 in
02:42 41.5 °F 37.4 °F 29.9 in Calm     85 % 0 in
02:47 41.2 °F 37.4 °F 29.9 in Calm     85 % 0 in
02:52 41.2 °F 37.4 °F 29.9 in Calm     86 % 0 in
02:57 41 °F 37.4 °F 29.9 in Calm     86 % 0 in
03:02 41 °F 37.4 °F 29.9 in Calm     86 % 0 in
03:07 40.8 °F 37.4 °F 29.9 in NNE 2.9 mph 2.9 mph 87 % 0 in
03:12 40.8 °F 37.4 °F 29.9 in Calm   2.9 mph 88 % 0 in
03:17 40.5 °F 37.4 °F 29.9 in Calm   2.9 mph 88 % 0 in
03:22 40.3 °F 37.4 °F 29.9 in Calm     88 % 0 in
03:27 40.3 °F 37.4 °F 29.9 in Calm     88 % 0 in
03:32 40.5 °F 37.4 °F 29.9 in Calm     88 % 0 in
03:37 40.5 °F 37.4 °F 29.9 in NNE 0.9 mph 2.5 mph 88 % 0 in
03:42 40.3 °F 37.4 °F 29.9 in Calm   3.4 mph 88 % 0 in
03:47 40.3 °F 37.4 °F 29.9 in Calm   3.4 mph 89 % 0 in
03:52 40.1 °F 37.4 °F 29.9 in Calm   2.2 mph 90 % 0 in
03:54 39.9 °F 37.4 °F 29.9 in Calm   2.2 mph 90 % 0 in
03:59 39.9 °F 37.4 °F 29.9 in Calm     90 % 0 in
04:05 40.1 °F 37.4 °F 29.9 in North 2.9 mph 2.9 mph 91 % 0 in
04:10 40.3 °F 37.4 °F 29.9 in NNE 4 mph 4 mph 91 % 0 in
04:15 40.5 °F 37.4 °F 29.9 in NE 4 mph 4.7 mph 92 % 0 in
04:20 40.3 °F 37.4 °F 29.9 in NNE 3.6 mph 4.7 mph 92 % 0 in
04:25 40.3 °F 37.4 °F 29.9 in Calm   4 mph 92 % 0 in
04:30 40.3 °F 37.4 °F 29.9 in NNE 2.5 mph 4.3 mph 92 % 0 in
04:35 40.3 °F 37.4 °F 29.9 in NNE 2.7 mph 4.3 mph 92 % 0 in
04:40 40.1 °F 37.4 °F 29.9 in NNE 3.6 mph 4.3 mph 92 % 0 in
04:45 40.1 °F 37.4 °F 29.9 in Calm   4.3 mph 92 % 0 in
04:50 40.1 °F 37.4 °F 29.9 in Calm   4 mph 92 % 0 in
04:55 39.9 °F 37.4 °F 29.9 in Calm   3.4 mph 92 % 0 in
05:00 39.9 °F 37.4 °F 29.9 in Calm   3.4 mph 93 % 0 in
05:05 39.9 °F 37.4 °F 29.9 in Calm   2.5 mph 93 % 0 in
05:10 39.9 °F 37.4 °F 29.9 in Calm   2.7 mph 93 % 0 in
05:15 39.6 °F 37.4 °F 29.9 in Calm   2.7 mph 93 % 0 in
05:20 39.4 °F 37.4 °F 29.9 in Calm   2.5 mph 92 % 0 in
05:25 39 °F 37.4 °F 29.9 in Calm     92 % 0 in
05:30 38.7 °F 37.4 °F 29.9 in Calm     92 % 0 in
05:35 38.1 °F 35.6 °F 29.9 in Calm     91 % 0 in
05:40 37.8 °F 35.6 °F 29.9 in Calm     91 % 0 in
05:45 37.8 °F 35.6 °F 29.9 in Calm     92 % 0 in
05:50 37.6 °F 35.6 °F 29.9 in Calm     92 % 0 in
05:55 37.4 °F 35.6 °F 29.9 in Calm     92 % 0 in
06:00 37.8 °F 37.4 °F 29.9 in Calm   3.1 mph 93 % 0 in
06:05 37.6 °F 35.6 °F 30 in North 2.5 mph 3.1 mph 93 % 0 in
06:10 37.6 °F 35.6 °F 30 in Calm   2.9 mph 93 % 0 in
06:15 37.8 °F 37.4 °F 30 in NNE 2.9 mph 3.1 mph 94 % 0 in
06:20 37.8 °F 37.4 °F 30 in Calm   3.1 mph 94 % 0 in
06:25 37.6 °F 35.6 °F 30 in Calm   2.9 mph 94 % 0 in
06:30 37.4 °F 35.6 °F 30 in Calm     94 % 0 in
06:31 37.4 °F 35.6 °F 30 in Calm     94 % 0 in
06:36 37 °F 35.6 °F 30 in Calm     94 % 0 in
06:41 36.9 °F 35.6 °F 30 in Calm     94 % 0 in
06:46 36.7 °F 35.6 °F 30 in Calm     94 % 0 in
06:51 36.7 °F 35.6 °F 30 in Calm     94 % 0 in
06:56 36.7 °F 35.6 °F 30 in Calm     94 % 0 in
07:01 36.9 °F 35.6 °F 30 in Calm     95 % 0 in
07:06 37.2 °F 37.4 °F 30 in Calm     95 % 0 in
07:11 37.8 °F 37.4 °F 30 in Calm   1.3 mph 96 % 0 in
07:17 38.1 °F 37.4 °F 30 in Calm   1.3 mph 96 % 0 in
07:22 38.8 °F 37.4 °F 29.9 in Calm     97 % 0 in
07:27 39.4 °F 39.2 °F 29.9 in Calm     97 % 0 in
07:32 40.1 °F 39.2 °F 29.9 in Calm     97 % 0 in
07:37 41 °F 41 °F 29.9 in Calm     97 % 0 in
07:42 42.1 °F 42.8 °F 29.9 in Calm     97 % 0 in
07:47 43.2 °F 42.8 °F 29.9 in Calm     97 % 0 in
07:52 44.2 °F 44.6 °F 30 in Calm     98 % 0 in
07:57 45.3 °F 44.6 °F 30 in Calm     97 % 0 in
08:02 46.4 °F 46.4 °F 30 in Calm   1.1 mph 96 % 0 in
08:07 47.5 °F 48.2 °F 29.9 in Calm   1.1 mph 96 % 0 in
08:12 48.2 °F 48.2 °F 29.9 in NE 2.5 mph 2.9 mph 95 % 0 in
08:17 48.7 °F 48.2 °F 29.9 in Calm   3.1 mph 93 % 0 in
08:22 49.1 °F 48.2 °F 29.9 in Calm   3.4 mph 93 % 0 in
08:25 50 °F 48.2 °F 29.9 in Calm   3.4 mph 91 % 0 in
08:30 50.4 °F 48.2 °F 29.9 in Calm   3.1 mph 90 % 0 in
08:35 51.1 °F 48.2 °F 29.9 in Calm   3.1 mph 88 % 0 in
08:40 51.6 °F 48.2 °F 30 in Calm   2.7 mph 86 % 0 in
08:46 52.3 °F 48.2 °F 30 in Calm   2.7 mph 85 % 0 in
08:51 52.7 °F 48.2 °F 30 in NNW 1.3 mph 1.6 mph 84 % 0 in
08:56 53.4 °F 48.2 °F 30 in NNW 0.9 mph 3.1 mph 83 % 0 in
09:01 54.3 °F 50 °F 30 in North 3.1 mph 3.6 mph 82 % 0 in
09:06 54.7 °F 48.2 °F 30 in Calm   4.3 mph 79 % 0 in
09:11 55.8 °F 50 °F 30 in Calm   4.3 mph 78 % 0 in
09:16 56.3 °F 50 °F 30 in Calm   2.5 mph 76 % 0 in
09:21 56.8 °F 48.2 °F 30 in Calm   4 mph 74 % 0 in
09:26 57 °F 50 °F 30 in Calm   4 mph 74 % 0 in
09:31 57.4 °F 48.2 °F 30 in NNW 1.6 mph 2.5 mph 70 % 0 in
09:36 58.1 °F 50 °F 30 in NE 3.6 mph 3.6 mph 71 % 0 in
09:41 58.5 °F 50 °F 30 in Calm   4.3 mph 71 % 0 in
09:47 58.6 °F 48.2 °F 30 in North 3.1 mph 4.3 mph 69 % 0 in
09:51 58.6 °F 48.2 °F 30 in North 2.7 mph 4.3 mph 69 % 0 in
09:56 59 °F 48.2 °F 30 in Calm   6 mph 68 % 0 in
10:01 59.7 °F 50 °F 30 in North 2 mph 6 mph 68 % 0 in
10:06 59.7 °F 50 °F 30 in North 3.1 mph 4.3 mph 68 % 0 in
10:11 60.3 °F 48.2 °F 30 in Calm   5.6 mph 66 % 0 in
10:16 61 °F 50 °F 30 in North 5.6 mph 5.6 mph 65 % 0 in
10:21 61.7 °F 50 °F 30 in NNE 5.8 mph 5.8 mph 63 % 0 in
10:26 61.7 °F 48.2 °F 30 in NNE 5.4 mph 5.8 mph 61 % 0 in
10:31 62.1 °F 48.2 °F 30 in NE 0.9 mph 6 mph 59 % 0 in
10:36 62.2 °F 48.2 °F 30 in North 4 mph 6.5 mph 58 % 0 in
10:41 62.6 °F 46.4 °F 30 in North 4.9 mph 6.5 mph 55 % 0 in
10:46 62.8 °F 46.4 °F 30 in NE 7.4 mph 8.5 mph 54 % 0 in
10:51 63 °F 46.4 °F 30 in NE 4.3 mph 8.5 mph 53 % 0 in
10:56 63.1 °F 46.4 °F 30 in NE 3.4 mph 7.4 mph 52 % 0 in
11:01 63.5 °F 46.4 °F 30 in Calm   7.6 mph 52 % 0 in
11:07 63.5 °F 46.4 °F 30 in Calm   7.6 mph 51 % 0 in
11:12 63.5 °F 46.4 °F 30 in NW 6 mph 6.5 mph 51 % 0 in
11:17 63.5 °F 44.6 °F 30 in NE 7.4 mph 7.4 mph 50 % 0 in
11:22 63.3 °F 42.8 °F 30 in North 7.6 mph 7.6 mph 48 % 0 in
11:27 64 °F 44.6 °F 30 in Calm   7.6 mph 49 % 0 in
11:32 64.8 °F 44.6 °F 30 in NNE 3.4 mph 7.6 mph 48 % 0 in
11:37 65.5 °F 46.4 °F 30 in NE 6.5 mph 7.2 mph 49 % 0 in
11:42 65.3 °F 46.4 °F 30 in Calm   6.5 mph 48 % 0 in
11:47 65.7 °F 44.6 °F 30 in West 1.3 mph 6.9 mph 47 % 0 in
11:52 66 °F 44.6 °F 30 in NNW 4 mph 7.6 mph 46 % 0 in
11:57 65.7 °F 44.6 °F 30 in Calm   7.6 mph 47 % 0 in
12:02 65.7 °F 44.6 °F 30 in NE 5.6 mph 6.5 mph 46 % 0 in
12:07 65.3 °F 44.6 °F 30 in North 4.9 mph 8.5 mph 46 % 0 in
12:12 65.3 °F 44.6 °F 30 in North 4.3 mph 8.5 mph 46 % 0 in
12:17 64.9 °F 44.6 °F 30 in North 5.4 mph 7.6 mph 47 % 0 in
12:22 65.1 °F 44.6 °F 30 in NNW 5.6 mph 7.6 mph 46 % 0 in
12:28 64.4 °F 42.8 °F 30 in North 6 mph 8.7 mph 45 % 0 in
12:33 63.5 °F 42.8 °F 30 in North 7.8 mph 10.3 mph 46 % 0 in
12:38 63.1 °F 42.8 °F 30 in North 3.1 mph 10.3 mph 46 % 0 in
12:43 63.5 °F 42.8 °F 30 in North 8.5 mph 9.8 mph 46 % 0 in
12:48 63.1 °F 42.8 °F 30 in NNW 8.5 mph 9.8 mph 47 % 0 in
12:53 63.3 °F 42.8 °F 30 in WNW 2.5 mph 8.9 mph 47 % 0 in
12:58 62.8 °F 42.8 °F 30 in North 4 mph 8.9 mph 47 % 0 in
13:03 62.1 °F 42.8 °F 30 in North 5.8 mph 8.7 mph 47 % 0 in
13:08 61.9 °F 42.8 °F 30 in North 5.8 mph 8.7 mph 48 % 0 in
13:13 61 °F 41 °F 30 in NNW 5.4 mph 10.3 mph 48 % 0 in
13:18 60.4 °F 41 °F 30 in North 7.2 mph 10.7 mph 49 % 0 in
13:23 60.1 °F 41 °F 30 in WNW 4 mph 10.7 mph 49 % 0 in
13:28 59.9 °F 41 °F 30 in NNW 7.2 mph 10.5 mph 49 % 0 in
13:33 60.1 °F 41 °F 30 in NNW 7.6 mph 10.5 mph 49 % 0 in
13:38 60.4 °F 41 °F 30 in NE 9.6 mph 10.7 mph 49 % 0 in
13:43 61 °F 42.8 °F 30 in North 8.1 mph 10.7 mph 49 % 0 in
13:48 61 °F 41 °F 30 in North 8.5 mph 10.7 mph 48 % 0 in
13:53 61.2 °F 42.8 °F 30 in NNE 10.3 mph 10.7 mph 48 % 0 in
13:58 61.3 °F 42.8 °F 30 in North 3.8 mph 10.3 mph 49 % 0 in
14:03 61.3 °F 42.8 °F 30 in NW 3.1 mph 10.1 mph 48 % 0 in
14:08 61.5 °F 42.8 °F 30 in North 6.3 mph 12.3 mph 48 % 0 in
14:13 61.9 °F 42.8 °F 30 in NNW 9.8 mph 12.3 mph 48 % 0 in
14:18 61.3 °F 42.8 °F 30 in NE 9.8 mph 11.2 mph 48 % 0 in
14:23 61.2 °F 42.8 °F 30 in North 8.5 mph 12.3 mph 49 % 0 in
14:28 61.5 °F 42.8 °F 30 in NNE 12.1 mph 12.3 mph 49 % 0 in
14:33 61.7 °F 42.8 °F 30 in NW 10.3 mph 12.5 mph 48 % 0 in
14:38 61.5 °F 42.8 °F 30 in North 12.1 mph 12.5 mph 48 % 0 in
14:43 61 °F 42.8 °F 30 in North 10.1 mph 13.9 mph 49 % 0 in
14:48 60.6 °F 42.8 °F 30 in NNE 8.1 mph 15.4 mph 50 % 0 in
14:53 60.4 °F 42.8 °F 30 in North 10.1 mph 15.4 mph 50 % 0 in
14:58 60.1 °F 42.8 °F 30 in North 10.5 mph 14.5 mph 50 % 0 in
15:04 59.9 °F 42.8 °F 30 in North 8.5 mph 13.2 mph 51 % 0 in
15:09 59.7 °F 42.8 °F 30 in North 12.3 mph 14.3 mph 51 % 0 in
15:14 59.5 °F 42.8 °F 30 in North 10.7 mph 14.3 mph 51 % 0 in
15:19 59.4 °F 42.8 °F 30 in NNW 7.8 mph 12.5 mph 51 % 0 in
15:24 59.2 °F 42.8 °F 30 in NW 8.9 mph 13 mph 52 % 0 in
15:29 59 °F 42.8 °F 30 in NE 5.6 mph 13 mph 52 % 0 in
15:34 58.5 °F 42.8 °F 30 in North 5.8 mph 13 mph 55 % 0 in
15:39 58.5 °F 42.8 °F 30 in North 7.8 mph 13 mph 57 % 0 in
15:44 57.7 °F 42.8 °F 30 in NE 11 mph 13.2 mph 56 % 0 in
15:45 57.7 °F 42.8 °F 30 in NNE 6.5 mph 13.2 mph 56 % 0 in
15:50 57.6 °F 44.6 °F 30 in WNW 5.6 mph 13.2 mph 59 % 0 in
15:55 57.4 °F 44.6 °F 30 in NNW 8.7 mph 10.5 mph 61 % 0 in
16:00 57.2 °F 44.6 °F 30 in NNE 8.7 mph 11 mph 63 % 0 in
16:05 57.4 °F 46.4 °F 30 in North 7.8 mph 11 mph 64 % 0 in
16:10 57.6 °F 46.4 °F 30 in NE 6.5 mph 10.5 mph 65 % 0 in
16:25 56.3 °F 46.4 °F 30 in North 5.6 mph 13.2 mph 69 % 0 in
16:30 56.1 °F 48.2 °F 30 in NW 3.8 mph 13.2 mph 71 % 0 in
16:35 55.8 °F 48.2 °F 30 in North 7.8 mph 8.5 mph 71 % 0 in
16:42 55.4 °F 46.4 °F 30 in North 6.3 mph 10.7 mph 71 % 0 in
16:49 55.2 °F 48.2 °F 30 in NNE 2.5 mph 10.7 mph 74 % 0 in
16:56 55.4 °F 48.2 °F 30 in NNW 6.5 mph 6.5 mph 78 % 0 in
17:01 55.2 °F 48.2 °F 30 in North 1.1 mph 7.2 mph 77 % 0 in
17:06 55.2 °F 48.2 °F 30 in North 3.6 mph 7.4 mph 77 % 0 in
17:11 55.6 °F 50 °F 30 in NW 5.4 mph 8.7 mph 79 % 0 in
17:16 55.4 °F 50 °F 30 in North 3.4 mph 8.7 mph 79 % 0 in
17:21 55.2 °F 50 °F 30 in NW 1.3 mph 7.8 mph 80 % 0 in
17:26 55 °F 50 °F 30 in NNE 6.3 mph 7.4 mph 79 % 0 in
17:31 54.7 °F 50 °F 30 in North 4.3 mph 7.4 mph 81 % 0 in
17:36 54.1 °F 50 °F 30.1 in ENE 4.3 mph 7.4 mph 82 % 0 in
17:41 54.1 °F 50 °F 30.1 in North 9.8 mph 9.8 mph 83 % 0 in
17:46 54 °F 48.2 °F 30.1 in NNW 6.9 mph 9.8 mph 82 % 0 in
17:51 54.1 °F 50 °F 30 in NNW 3.1 mph 8.5 mph 82 % 0 in
17:56 54 °F 48.2 °F 30 in NNW 3.6 mph 8.5 mph 83 % 0 in
18:01 54 °F 48.2 °F 30 in NNW 2.9 mph 7.8 mph 83 % 0 in
18:06 53.8 °F 50 °F 30 in NNW 4.9 mph 8.1 mph 84 % 0 in
18:11 53.8 °F 50 °F 30 in WNW 2.9 mph 8.1 mph 84 % 0 in
18:16 53.6 °F 50 °F 30 in NNW 4 mph 8.1 mph 84 % 0 in
18:21 53.6 °F 50 °F 30 in North 3.8 mph 8.1 mph 84 % 0 in
18:27 53.4 °F 50 °F 30 in NNW 7.6 mph 7.6 mph 85 % 0 in
18:32 53.4 °F 50 °F 30 in WNW 2.2 mph 7.6 mph 87 % 0 in
18:37 53.1 °F 48.2 °F 30 in Calm   7.6 mph 86 % 0 in
18:42 53.1 °F 48.2 °F 30 in WNW 4.3 mph 7.4 mph 86 % 0 in
18:47 52.9 °F 50 °F 30 in North 3.4 mph 7.4 mph 87 % 0 in
18:52 52.5 °F 48.2 °F 30 in NNW 4.9 mph 7.6 mph 88 % 0 in
18:57 52.3 °F 48.2 °F 30 in North 1.6 mph 7.6 mph 88 % 0 in
19:02 52.2 °F 48.2 °F 30 in North 2.9 mph 7.8 mph 88 % 0 in
19:07 52.2 °F 50 °F 30 in NW 3.1 mph 7.8 mph 89 % 0 in
19:12 52.2 °F 50 °F 30 in North 2.5 mph 6 mph 89 % 0 in
19:17 52.2 °F 50 °F 30 in NNW 5.4 mph 5.6 mph 90 % 0 in
19:22 52 °F 50 °F 30 in North 5.8 mph 5.8 mph 91 % 0 in
19:27 51.8 °F 50 °F 30 in NNW 3.4 mph 5.8 mph 91 % 0 in
19:28 51.8 °F 50 °F 30 in West 2 mph 5.8 mph 91 % 0 in
19:33 51.8 °F 50 °F 30 in NW 2.7 mph 6.5 mph 91 % 0 in
19:38 51.8 °F 50 °F 30 in NNW 2.2 mph 6.5 mph 92 % 0 in
19:43 51.6 °F 50 °F 30 in Calm   6 mph 92 % 0 in
19:48 51.6 °F 50 °F 30 in WNW 3.4 mph 4.7 mph 93 % 0 in
19:53 51.6 °F 50 °F 30 in NNW 2.7 mph 4.7 mph 93 % 0 in
19:58 51.6 °F 50 °F 30 in NNW 3.6 mph 4.7 mph 93 % 0 in
20:03 51.6 °F 50 °F 30 in West 2.5 mph 3.8 mph 93 % 0 in
20:08 51.6 °F 50 °F 30 in NNW 3.6 mph 5.4 mph 94 % 0 in
20:13 51.6 °F 50 °F 30 in NNW 2.9 mph 5.4 mph 94 % 0 in
20:18 51.6 °F 50 °F 30 in North 4.9 mph 4.9 mph 94 % 0 in
20:23 51.6 °F 50 °F 30 in WNW 1.1 mph 5.6 mph 94 % 0 in
20:28 51.6 °F 50 °F 30 in Calm   5.8 mph 94 % 0 in
20:33 51.6 °F 50 °F 30 in Calm   5.8 mph 94 % 0 in
20:39 51.4 °F 50 °F 30 in NNW 3.4 mph 6.5 mph 94 % 0 in
20:44 51.4 °F 50 °F 30 in NW 2.5 mph 6.5 mph 94 % 0 in
20:49 51.3 °F 50 °F 30 in North 2.7 mph 4.3 mph 94 % 0 in
20:54 51.3 °F 50 °F 30 in NNW 1.1 mph 4.9 mph 94 % 0 in
20:59 51.3 °F 50 °F 30 in Calm   4.9 mph 94 % 0 in
21:04 51.1 °F 50 °F 30 in WNW 1.6 mph 3.4 mph 94 % 0 in
21:09 51.1 °F 50 °F 30 in Calm   3.1 mph 94 % 0 in
21:14 51.1 °F 50 °F 30 in Calm   4.3 mph 94 % 0 in
21:19 51.1 °F 50 °F 30 in NW 3.8 mph 4.3 mph 94 % 0 in
21:24 50.9 °F 50 °F 30 in Calm   4.9 mph 94 % 0 in
21:29 50.9 °F 50 °F 30 in WNW 4 mph 4.9 mph 94 % 0 in
21:34 50.9 °F 50 °F 30 in NNW 2.7 mph 5.8 mph 95 % 0 in
21:39 50.9 °F 50 °F 30 in NNW 2.7 mph 5.8 mph 95 % 0 in
21:44 50.9 °F 50 °F 30 in North 3.6 mph 4.3 mph 95 % 0 in
21:47 50.7 °F 50 °F 30 in NNW 1.1 mph 3.8 mph 95 % 0 in
21:52 50.9 °F 50 °F 30 in WNW 1.6 mph 3.8 mph 95 % 0 in
21:57 50.7 °F 50 °F 30 in Calm   5.6 mph 95 % 0 in
22:03 50.7 °F 50 °F 30 in North 2.5 mph 5.6 mph 95 % 0 in
22:08 50.5 °F 50 °F 30 in Calm   5.4 mph 95 % 0 in
22:13 50.5 °F 50 °F 30 in Calm   3.6 mph 95 % 0 in
22:18 50.5 °F 50 °F 30 in Calm   3.6 mph 95 % 0.01 in
22:23 50.4 °F 50 °F 30 in Calm   3.1 mph 95 % 0.01 in
22:28 50.2 °F 48.2 °F 30 in Calm     95 % 0.01 in
22:33 50 °F 48.2 °F 30 in Calm     95 % 0.01 in
22:38 49.8 °F 48.2 °F 30 in NNW 1.3 mph 1.3 mph 95 % 0.01 in
22:43 49.8 °F 48.2 °F 30 in Calm   2.5 mph 95 % 0.01 in
22:48 49.6 °F 48.2 °F 30 in NW 2.2 mph 2.5 mph 95 % 0.01 in
22:53 49.5 °F 48.2 °F 30 in NE 2.2 mph 3.1 mph 95 % 0.01 in
22:58 49.3 °F 48.2 °F 30 in Calm   3.1 mph 96 % 0.01 in
23:03 49.3 °F 48.2 °F 30 in Calm   2.5 mph 96 % 0.01 in
23:08 49.1 °F 48.2 °F 30 in WNW 0.9 mph 2.7 mph 96 % 0.01 in
23:13 48.9 °F 48.2 °F 30 in WNW 1.1 mph 2.7 mph 96 % 0.01 in
23:18 48.9 °F 48.2 °F 30 in Calm   1.6 mph 96 % 0 in
23:23 48.9 °F 48.2 °F 30 in WNW 0.9 mph 2.2 mph 96 % 0 in
23:28 48.7 °F 48.2 °F 30 in West 2 mph 3.1 mph 96 % 0 in
23:33 48.7 °F 48.2 °F 30 in West 2 mph 3.1 mph 96 % 0 in
23:39 48.6 °F 48.2 °F 30 in Calm   2.7 mph 96 % 0 in
23:43 48.6 °F 48.2 °F 30 in Calm   2.2 mph 96 % 0 in
23:49 48.7 °F 48.2 °F 30 in WNW 2.5 mph 3.6 mph 97 % 0 in
23:54 48.7 °F 48.2 °F 30 in NNW 4.7 mph 6.3 mph 97 % 0 in
23:59 48.7 °F 48.2 °F 30 in WNW 2.9 mph 6.3 mph 98 % 0 in
Le Gheer Warneton
Courtoisie de Weather Underground - 2.25 mb

Mise a jour : 16-12-17 15:55:11
Généré par Cumulus 1.9.4 (1099)